| time (UTC) | temp F | wind direction | speed knots | gust knots | rain 1hr in | rain 24hr in | rain mn in | humidity % | barometer mb |
| 20260507185727 | 69 | 180 | 0.9 | 13.0 | 0.00 | 0.00 | 0.00 | 29 | 1007.8 |
| 20260507185217 | 68 | 180 | 0.9 | 12.2 | 0.00 | 0.00 | 0.00 | 29 | 1007.9 |
| 20260507184705 | 68 | 135 | 1.7 | 12.2 | 0.00 | 0.00 | 0.00 | 29 | 1007.8 |
| 20260507184156 | 68 | 225 | 2.6 | 9.6 | 0.00 | 0.00 | 0.00 | 29 | 1007.8 |
| 20260507183646 | 68 | 113 | 1.7 | 13.0 | 0.00 | 0.00 | 0.00 | 29 | 1007.9 |
| 20260507183135 | 68 | 293 | 3.5 | 13.0 | 0.00 | 0.00 | 0.00 | 30 | 1007.7 |
| 20260507182631 | 68 | 180 | 1.7 | 11.3 | 0.00 | 0.00 | 0.00 | 31 | 1007.4 |
| 20260507182112 | 69 | 225 | 0.0 | 11.3 | 0.00 | 0.00 | 0.00 | 31 | 1007.1 |
| 20260507181052 | 69 | 270 | 1.7 | 7.8 | 0.00 | 0.00 | 0.00 | 32 | 1007.2 |
| 20260507180548 | 69 | 158 | 0.9 | 13.9 | 0.00 | 0.00 | 0.00 | 32 | 1007.2 |
| 20260507180038 | 68 | 180 | 1.7 | 13.9 | 0.00 | 0.00 | 0.00 | 32 | 1007.1 |
| 20260507175525 | 68 | 68 | 2.6 | 13.9 | 0.00 | 0.00 | 0.00 | 32 | 1007.0 |
| 20260507175016 | 67 | 248 | 3.5 | 13.9 | 0.00 | 0.00 | 0.00 | 32 | 1007.4 |
| 20260507172934 | 67 | 203 | 1.7 | 11.3 | 0.00 | 0.00 | 0.00 | 37 | 1007.5 |
| 20260507172424 | 67 | 225 | 0.9 | 9.6 | 0.00 | 0.00 | 0.00 | 38 | 1007.9 |
| 20260507171913 | 66 | 248 | 0.9 | 9.6 | 0.00 | 0.00 | 0.00 | 39 | 1008.1 |
| 20260507171403 | 66 | 248 | 1.7 | 13.9 | 0.00 | 0.00 | 0.00 | 39 | 1008.2 |
| 20260507170853 | 66 | 248 | 0.9 | 13.9 | 0.00 | 0.00 | 0.00 | 41 | 1008.4 |
| 20260507170344 | 65 | 225 | 1.7 | 9.6 | 0.00 | 0.00 | 0.00 | 42 | 1008.5 |
| 20260507165834 | 65 | 270 | 2.6 | 9.6 | 0.00 | 0.00 | 0.00 | 44 | 1008.5 |
| 20260507165323 | 64 | 203 | 1.7 | 9.6 | 0.00 | 0.00 | 0.00 | 44 | 1009.0 |
| 20260507164814 | 63 | 113 | 0.9 | 9.6 | 0.00 | 0.00 | 0.00 | 46 | 1009.2 |
| 20260507164303 | 63 | 225 | 0.9 | 9.6 | 0.00 | 0.00 | 0.00 | 48 | 1009.4 |
| 20260507163754 | 63 | 113 | 0.9 | 12.2 | 0.00 | 0.00 | 0.00 | 49 | 1009.6 |
| 20260507163242 | 62 | 180 | 0.0 | 12.2 | 0.00 | 0.00 | 0.00 | 51 | 1009.6 |
| 20260507162732 | 62 | 225 | 0.9 | 7.8 | 0.00 | 0.00 | 0.00 | 51 | 1009.6 |
| 20260507162222 | 62 | 225 | 0.9 | 7.8 | 0.00 | 0.00 | 0.00 | 53 | 1009.7 |
| 20260507161713 | 62 | 225 | 0.0 | 9.6 | 0.00 | 0.00 | 0.00 | 52 | 1009.7 |
| 20260507161202 | 60 | 248 | 0.9 | 7.0 | 0.00 | 0.00 | 0.00 | 52 | 1009.8 |
| 20260507160655 | 60 | 225 | 2.6 | 7.0 | 0.00 | 0.00 | 0.00 | 53 | 1009.5 |
| 20260507160143 | 60 | 248 | 0.9 | 6.1 | 0.00 | 0.00 | 0.00 | 56 | 1009.6 |
| 20260507155632 | 59 | 158 | 0.9 | 9.6 | 0.00 | 0.00 | 0.00 | 58 | 1009.9 |
| 20260507155122 | 59 | 135 | 1.7 | 9.6 | 0.00 | 0.00 | 0.00 | 58 | 1009.8 |
| 20260507154612 | 58 | 158 | 0.0 | 7.0 | 0.00 | 0.00 | 0.00 | 60 | 1010.1 |
| 20260507154101 | 58 | 180 | 0.0 | 9.6 | 0.00 | 0.00 | 0.00 | 60 | 1010.8 |
| 20260507153552 | 58 | 203 | 0.9 | 9.6 | 0.00 | 0.00 | 0.00 | 60 | 1010.6 |
| 20260507153049 | 57 | 113 | 0.9 | 5.2 | 0.00 | 0.00 | 0.00 | 61 | 1010.8 |
| 20260507151512 | 56 | 203 | 0.0 | 6.1 | 0.00 | 0.00 | 0.00 | 64 | 1011.1 |
| 20260507150450 | 57 | 270 | 0.0 | 1.7 | 0.00 | 0.00 | 0.00 | 65 | 1011.1 |
| 20260507145940 | 57 | 203 | 0.0 | 6.1 | 0.00 | 0.00 | 0.00 | 65 | 1010.4 |
| 20260507144924 | 56 | 248 | 0.0 | 3.5 | 0.00 | 0.00 | 0.00 | 66 | 1010.6 |
| 20260507144410 | 56 | 225 | 0.0 | 5.2 | 0.00 | 0.00 | 0.00 | 65 | 1010.6 |
| 20260507143859 | 56 | 203 | 0.0 | 5.2 | 0.00 | 0.00 | 0.00 | 68 | 1010.6 |
| 20260507142842 | 56 | 180 | 0.0 | 5.2 | 0.00 | 0.00 | 0.00 | 67 | 1010.7 |
| 20260507142336 | 56 | 203 | 0.0 | 3.5 | 0.00 | 0.00 | 0.00 | 68 | 1010.5 |
| 20260507141820 | 56 | 225 | 0.0 | 5.2 | 0.00 | 0.00 | 0.00 | 66 | 1010.5 |
| 20260507141310 | 56 | 203 | 0.0 | 6.1 | 0.00 | 0.00 | 0.00 | 65 | 1010.5 |
| 20260507140759 | 56 | 135 | 0.0 | 6.1 | 0.00 | 0.00 | 0.00 | 66 | 1010.3 |
| 20260507140249 | 56 | 203 | 1.7 | 7.8 | 0.00 | 0.00 | 0.00 | 68 | 1010.5 |
| 20260507135740 | 55 | 225 | 1.7 | 7.8 | 0.00 | 0.00 | 0.00 | 69 | 1010.5 |
| 20260507135230 | 55 | 270 | 0.0 | 6.1 | 0.00 | 0.00 | 0.00 | 72 | 1010.6 |
| 20260507134720 | 54 | 203 | 1.7 | 5.2 | 0.00 | 0.00 | 0.00 | 74 | 1010.6 |
| 20260507134209 | 54 | 203 | 1.7 | 3.5 | 0.00 | 0.00 | 0.00 | 75 | 1010.4 |
| 20260507133150 | 53 | 225 | 0.0 | 0.0 | 0.00 | 0.00 | 0.00 | 84 | 1009.6 |
| 20260507132129 | 54 | 225 | 0.0 | 3.5 | 0.00 | 0.00 | 0.00 | 82 | 1009.4 |
| 20260507131619 | 54 | 248 | 0.0 | 3.5 | 0.00 | 0.00 | 0.00 | 80 | 1009.2 |
| 20260507131108 | 54 | 135 | 0.0 | 9.6 | 0.00 | 0.00 | 0.00 | 81 | 1009.2 |
| 20260507130558 | 53 | 180 | 0.0 | 9.6 | 0.00 | 0.00 | 0.00 | 81 | 1009.3 |
| 20260507130049 | 54 | 158 | 0.0 | 1.7 | 0.00 | 0.00 | 0.00 | 83 | 1008.9 |
| 20260507125538 | 54 | 225 | 0.0 | 3.5 | 0.00 | 0.00 | 0.00 | 79 | 1009.5 |
| 20260507125028 | 54 | 225 | 0.9 | 3.5 | 0.00 | 0.00 | 0.00 | 80 | 1009.7 |
| 20260507124517 | 54 | 248 | 0.0 | 3.5 | 0.00 | 0.00 | 0.00 | 80 | 1009.3 |
| 20260507124008 | 54 | 248 | 1.7 | 3.5 | 0.00 | 0.00 | 0.00 | 81 | 1009.3 |
| 20260507123458 | 54 | 180 | 1.7 | 3.5 | 0.00 | 0.00 | 0.00 | 82 | 1009.8 |
| 20260507122947 | 53 | 270 | 0.0 | 7.0 | 0.00 | 0.00 | 0.00 | 85 | 1010.1 |
| 20260507122439 | 54 | 225 | 2.6 | 7.0 | 0.00 | 0.00 | 0.00 | 82 | 1010.0 |
| 20260507121927 | 53 | 315 | 1.7 | 7.0 | 0.00 | 0.00 | 0.00 | 86 | 1010.1 |
| 20260507121417 | 53 | 248 | 1.7 | 5.2 | 0.00 | 0.00 | 0.00 | 89 | 1009.6 |
| 20260507120356 | 53 | 248 | 2.6 | 7.0 | 0.00 | 0.00 | 0.00 | 89 | 1008.5 |
| 20260507115847 | 53 | 90 | 1.7 | 7.0 | 0.00 | 0.00 | 0.00 | 90 | 1008.5 |
| 20260507115340 | 53 | 180 | 2.6 | 6.1 | 0.00 | 0.00 | 0.00 | 90 | 1008.6 |
| 20260507114827 | 53 | 270 | 1.7 | 7.0 | 0.00 | 0.00 | 0.00 | 90 | 1008.1 |
| 20260507114325 | 53 | 203 | 3.5 | 7.0 | 0.00 | 0.00 | 0.00 | 88 | 1007.8 |
| 20260507112748 | 55 | 158 | 3.5 | 9.6 | 0.00 | 0.00 | 0.00 | 84 | 1006.9 |
| 20260507112236 | 56 | 180 | 0.0 | 7.8 | 0.00 | 0.00 | 0.00 | 81 | 1006.5 |
| 20260507111735 | 57 | 248 | 1.7 | 7.8 | 0.00 | 0.00 | 0.00 | 76 | 1006.7 |
| 20260507111215 | 57 | 248 | 1.7 | 7.8 | 0.00 | 0.00 | 0.00 | 75 | 1006.7 |
| 20260507110156 | 57 | 135 | 0.9 | 6.1 | 0.00 | 0.00 | 0.00 | 78 | 1006.8 |
| 20260507105137 | 58 | 225 | 0.9 | 7.0 | 0.00 | 0.00 | 0.00 | 78 | 1007.5 |
| 20260507104625 | 58 | 135 | 0.0 | 7.8 | 0.00 | 0.00 | 0.00 | 77 | 1007.2 |
| 20260507104116 | 59 | 113 | 0.0 | 7.8 | 0.00 | 0.00 | 0.00 | 73 | 1007.1 |
| 20260507103606 | 59 | 180 | 1.7 | 7.8 | 0.00 | 0.00 | 0.00 | 73 | 1006.9 |
| 20260507103055 | 59 | 203 | 0.0 | 9.6 | 0.00 | 0.00 | 0.00 | 75 | 1006.1 |
| 20260507102547 | 60 | 203 | 0.0 | 9.6 | 0.00 | 0.00 | 0.00 | 72 | 1005.7 |
| 20260507102035 | 60 | 158 | 0.0 | 9.6 | 0.00 | 0.00 | 0.00 | 69 | 1005.7 |
| 20260507101524 | 61 | 158 | 0.0 | 7.8 | 0.00 | 0.00 | 0.00 | 65 | 1005.3 |
| 20260507101015 | 61 | 248 | 1.7 | 7.8 | 0.00 | 0.00 | 0.00 | 65 | 1005.1 |
| 20260507100505 | 61 | 180 | 0.0 | 12.2 | 0.00 | 0.00 | 0.00 | 66 | 1005.3 |
| 20260507095954 | 61 | 203 | 0.0 | 12.2 | 0.00 | 0.00 | 0.00 | 69 | 1005.2 |
| 20260507094934 | 62 | 180 | 0.9 | 11.3 | 0.00 | 0.00 | 0.00 | 67 | 1005.7 |
| 20260507094420 | 62 | 0 | 2.6 | 11.3 | 0.00 | 0.00 | 0.00 | 68 | 1005.7 |
| 20260507093913 | 62 | 158 | 0.9 | 6.1 | 0.00 | 0.00 | 0.00 | 70 | 1005.9 |
| 20260507093403 | 62 | 248 | 0.0 | 6.1 | 0.00 | 0.00 | 0.00 | 71 | 1005.9 |
| 20260507092853 | 62 | 158 | 0.0 | 12.2 | 0.00 | 0.00 | 0.00 | 72 | 1006.2 |
| 20260507091833 | 62 | 248 | 0.0 | 9.6 | 0.00 | 0.00 | 0.00 | 73 | 1005.6 |
| 20260507090813 | 63 | 113 | 0.0 | 9.6 | 0.00 | 0.00 | 0.00 | 74 | 1005.3 |
| 20260507090302 | 63 | 248 | 1.7 | 9.6 | 0.00 | 0.00 | 0.00 | 73 | 1005.1 |
| 20260507085753 | 64 | 315 | 3.5 | 7.8 | 0.00 | 0.00 | 0.00 | 74 | 1005.3 |
| 20260507085243 | 64 | 270 | 3.5 | 11.3 | 0.00 | 0.00 | 0.00 | 75 | 1005.3 |
| 20260507084223 | 65 | 203 | 2.6 | 13.0 | 0.00 | 0.00 | 0.00 | 75 | 1005.0 |
| 20260507083711 | 65 | 248 | 3.5 | 11.3 | 0.00 | 0.00 | 0.00 | 75 | 1004.8 |
| 20260507083203 | 65 | 248 | 2.6 | 7.8 | 0.00 | 0.00 | 0.00 | 77 | 1005.0 |
| 20260507082652 | 65 | 270 | 1.7 | 7.8 | 0.00 | 0.00 | 0.00 | 79 | 1004.9 |
| 20260507082141 | 65 | 113 | 3.5 | 11.3 | 0.00 | 0.00 | 0.00 | 80 | 1004.9 |
| 20260507081634 | 65 | 248 | 2.6 | 11.3 | 0.00 | 0.00 | 0.00 | 82 | 1005.1 |
| 20260507081122 | 65 | 203 | 3.5 | 11.3 | 0.00 | 0.00 | 0.00 | 85 | 1004.7 |
| 20260507080612 | 66 | 338 | 2.6 | 11.3 | 0.00 | 0.00 | 0.00 | 87 | 1004.7 |
| 20260507075551 | 66 | 68 | 3.5 | 9.6 | 0.00 | 0.00 | 0.00 | 88 | 1004.3 |
| 20260507075041 | 66 | 203 | 2.6 | 12.2 | 0.00 | 0.00 | 0.00 | 88 | 1004.6 |
| 20260507074022 | 66 | 113 | 3.5 | 13.0 | 0.00 | 0.00 | 0.00 | 89 | 1004.5 |
| 20260507073511 | 66 | 113 | 2.6 | 13.0 | 0.00 | 0.00 | 0.00 | 89 | 1004.2 |
| 20260507073001 | 66 | 248 | 3.5 | 7.8 | 0.00 | 0.00 | 0.00 | 90 | 1004.1 |
| 20260507072450 | 66 | 180 | 2.6 | 11.3 | 0.00 | 0.00 | 0.00 | 90 | 1004.2 |
| 20260507071940 | 66 | 180 | 3.5 | 11.3 | 0.00 | 0.00 | 0.00 | 90 | 1004.2 |
| 20260507071430 | 67 | 270 | 1.7 | 9.6 | 0.00 | 0.00 | 0.00 | 91 | 1004.1 |
| 20260507070920 | 67 | 203 | 3.5 | 13.0 | 0.00 | 0.00 | 0.00 | 91 | 1004.5 |
| 20260507070410 | 67 | 225 | 4.3 | 13.0 | 0.00 | 0.00 | 0.00 | 91 | 1004.0 |
| 20260507065349 | 67 | 113 | 2.6 | 11.3 | 0.00 | 0.00 | 0.00 | 91 | 1003.9 |
| 20260507064840 | 67 | 270 | 2.6 | 11.3 | 0.00 | 0.00 | 0.00 | 91 | 1003.6 |
| 20260507064330 | 66 | 203 | 3.5 | 7.8 | 0.00 | 0.00 | 0.00 | 91 | 1003.7 |
| 20260507063309 | 67 | 203 | 4.3 | 9.6 | 0.00 | 0.00 | 0.00 | 90 | 1003.5 |
| 20260507062800 | 67 | 180 | 3.5 | 11.3 | 0.00 | 0.00 | 0.00 | 90 | 1003.3 |
| 20260507062249 | 67 | 90 | 2.6 | 11.3 | 0.00 | 0.00 | 0.00 | 90 | 1003.2 |
| 20260507061739 | 67 | 270 | 3.5 | 9.6 | 0.00 | 0.00 | 0.00 | 89 | 1003.4 |
| 20260507060719 | 67 | 158 | 2.6 | 9.6 | 0.00 | 0.00 | 0.00 | 88 | 1003.5 |
| 20260507060210 | 67 | 225 | 2.6 | 9.6 | 0.00 | 0.00 | 0.00 | 88 | 1003.5 |
| 20260507055658 | 67 | 180 | 3.5 | 9.6 | 0.00 | 0.00 | 0.00 | 88 | 1003.4 |
| 20260507055149 | 67 | 158 | 1.7 | 12.2 | 0.00 | 0.00 | 0.00 | 89 | 1003.3 |
| 20260507054127 | 67 | 158 | 2.6 | 7.8 | 0.00 | 0.00 | 0.00 | 92 | 1003.1 |
| 20260507053618 | 67 | 113 | 1.7 | 5.2 | 0.00 | 0.00 | 0.00 | 93 | 1003.0 |
| 20260507053110 | 67 | 225 | 1.7 | 5.2 | 0.00 | 0.00 | 0.00 | 93 | 1003.3 |
| 20260507052557 | 67 | 23 | 1.7 | 7.8 | 0.00 | 0.00 | 0.00 | 93 | 1003.1 |
| 20260507052048 | 67 | 225 | 2.6 | 7.8 | 0.00 | 0.00 | 0.00 | 93 | 1003.0 |
| 20260507051539 | 67 | 180 | 2.6 | 7.8 | 0.00 | 0.00 | 0.00 | 92 | 1002.9 |
| 20260507051028 | 67 | 203 | 1.7 | 7.8 | 0.00 | 0.00 | 0.00 | 92 | 1003.0 |
| 20260507050517 | 68 | 180 | 0.9 | 7.8 | 0.00 | 0.00 | 0.00 | 91 | 1002.9 |
| 20260507045501 | 68 | 135 | 2.6 | 7.8 | 0.00 | 0.00 | 0.00 | 90 | 1002.7 |
| 20260507044947 | 69 | 158 | 2.6 | 7.8 | 0.00 | 0.00 | 0.00 | 90 | 1002.5 |
| 20260507044437 | 69 | 135 | 1.7 | 7.8 | 0.00 | 0.00 | 0.00 | 90 | 1002.7 |
| 20260507043927 | 70 | 203 | 0.9 | 7.8 | 0.00 | 0.00 | 0.00 | 90 | 1002.6 |
| 20260507043417 | 70 | 135 | 2.6 | 9.6 | 0.00 | 0.00 | 0.00 | 91 | 1002.8 |
| 20260507042907 | 70 | 225 | 2.6 | 9.6 | 0.00 | 0.00 | 0.00 | 92 | 1002.6 |
| 20260507041337 | 71 | 225 | 0.9 | 3.5 | 0.00 | 0.00 | 0.00 | 98 | 1002.7 |
| 20260507040827 | 70 | 180 | 1.7 | 5.2 | 0.00 | 0.00 | 0.00 | 98 | 1002.5 |
| 20260507040321 | 43 | 203 | 2.6 | 7.0 | 0.00 | 0.00 | 0.00 | 95 | 1002.5 |
| 20260507035806 | 69 | 203 | 1.7 | 7.0 | 0.00 | 0.00 | 0.00 | 98 | 1002.6 |
| 20260507035256 | 68 | 203 | 2.6 | 6.1 | 0.00 | 0.00 | 0.00 | 99 | 1002.6 |
| 20260507034746 | 67 | 180 | 1.7 | 6.1 | 0.00 | 0.00 | 0.00 | 98 | 1002.3 |
| 20260507034236 | 67 | 68 | 0.0 | 0.0 | 0.00 | 0.00 | 0.00 | 98 | 1002.0 |
| 20260507033217 | 69 | 23 | 0.0 | 0.0 | 0.00 | 0.00 | 0.00 | 98 | 1001.7 |
| 20260507032705 | 69 | 23 | 0.0 | 0.0 | 0.00 | 0.00 | 0.00 | 99 | 1001.5 |
| 20260507032155 | 69 | 23 | 0.0 | 0.0 | 0.00 | 0.00 | 0.00 | 98 | 1001.6 |
| 20260507031645 | 69 | 23 | 0.0 | 0.0 | 0.00 | 0.00 | 0.00 | 98 | 1001.5 |
| 20260507031135 | 69 | 23 | 0.0 | 0.0 | 0.00 | 0.00 | 0.00 | 98 | 1001.6 |
| 20260507030637 | 70 | 23 | 0.0 | 0.0 | 0.00 | 0.00 | 0.00 | 98 | 1001.6 |
| 20260507030114 | 69 | 23 | 0.0 | 0.0 | 0.00 | 0.00 | 0.00 | 98 | 1001.5 |
| 20260507025054 | 69 | 23 | 0.0 | 0.0 | 0.00 | 0.00 | 0.00 | 98 | 1001.7 |
| 20260507024545 | 69 | 23 | 0.0 | 0.0 | 0.00 | 0.00 | 0.00 | 98 | 1001.6 |
| 20260507024035 | 69 | 23 | 0.0 | 0.0 | 0.00 | 0.00 | 0.00 | 98 | 1001.7 |
| 20260507023524 | 68 | 23 | 0.0 | 0.0 | 0.00 | 0.00 | 0.00 | 97 | 1001.8 |
| 20260507022504 | 70 | 23 | 0.0 | 0.0 | 0.00 | 0.00 | 0.00 | 98 | 1001.9 |
| 20260507021954 | 69 | 23 | 0.0 | 0.0 | 0.00 | 0.00 | 0.00 | 98 | 1001.6 |
| 20260507021443 | 69 | 23 | 0.0 | 0.0 | 0.00 | 0.00 | 0.00 | 97 | 1002.0 |
| 20260507020933 | 69 | 23 | 0.0 | 0.0 | 0.00 | 0.00 | 0.00 | 97 | 1001.9 |
| 20260507020423 | 69 | 23 | 0.0 | 0.0 | 0.00 | 0.00 | 0.00 | 97 | 1002.1 |
| 20260507015913 | 69 | 23 | 0.0 | 1.7 | 0.00 | 0.00 | 0.00 | 97 | 1002.1 |
| 20260507015403 | 69 | 23 | 0.0 | 1.7 | 0.00 | 0.00 | 0.00 | 97 | 1002.3 |
| 20260507014853 | 70 | 23 | 0.0 | 0.0 | 0.00 | 0.00 | 0.00 | 97 | 1002.4 |
| 20260507014343 | 70 | 23 | 0.0 | 0.0 | 0.00 | 0.00 | 0.00 | 97 | 1002.3 |
| 20260507013833 | 70 | 23 | 0.0 | 0.0 | 0.00 | 0.00 | 0.00 | 97 | 1002.0 |
| 20260507013324 | 71 | 23 | 0.0 | 0.0 | 0.00 | 0.00 | 0.00 | 97 | 1002.2 |
| 20260507012812 | 71 | 23 | 0.0 | 0.0 | 0.00 | 0.00 | 0.00 | 97 | 1002.2 |
| 20260507011753 | 71 | 23 | 0.0 | 0.0 | 0.00 | 0.00 | 0.00 | 96 | 1002.1 |
| 20260507011242 | 71 | 23 | 0.0 | 0.0 | 0.00 | 0.00 | 0.00 | 96 | 1002.6 |
| 20260507010732 | 71 | 23 | 0.0 | 0.0 | 0.00 | 0.00 | 0.00 | 96 | 1002.5 |
| 20260507010222 | 71 | 23 | 0.0 | 0.0 | 0.00 | 0.00 | 0.00 | 96 | 1002.5 |
| 20260507005712 | 71 | 23 | 0.0 | 0.0 | 0.00 | 0.00 | 0.00 | 96 | 1002.5 |
| 20260507004652 | 71 | 23 | 0.0 | 0.0 | 0.00 | 0.00 | 0.00 | 95 | 1002.5 |
| 20260507004142 | 71 | 23 | 0.0 | 0.0 | 0.00 | 0.00 | 0.00 | 95 | 1002.4 |
| 20260507003632 | 71 | 23 | 0.0 | 0.0 | 0.00 | 0.00 | 0.00 | 95 | 1002.6 |
| 20260507003121 | 71 | 23 | 0.0 | 0.0 | 0.00 | 0.00 | 0.00 | 95 | 1002.6 |
| 20260507002615 | 71 | 23 | 0.0 | 0.0 | 0.00 | 0.00 | 0.00 | 95 | 1002.3 |
| 20260507002100 | 72 | 23 | 0.0 | 0.0 | 0.00 | 0.00 | 0.00 | 96 | 1002.1 |
| 20260507001551 | 72 | 23 | 0.0 | 0.0 | 0.00 | 0.00 | 0.00 | 96 | 1002.1 |
| 20260507001044 | 72 | 23 | 0.0 | 0.0 | 0.00 | 0.00 | 0.00 | 96 | 1001.7 |
| 20260507000530 | 72 | 23 | 0.0 | 0.0 | 0.00 | 0.00 | 0.00 | 95 | 1001.8 |
| 20260507000022 | 72 | 23 | 0.0 | 0.0 | 0.00 | 0.00 | 0.00 | 95 | 1001.9 |
| 20260506235510 | 72 | 23 | 0.0 | 0.0 | 0.00 | 0.00 | 0.00 | 95 | 1001.9 |
| 20260506235000 | 72 | 23 | 0.0 | 0.0 | 0.00 | 0.00 | 0.00 | 95 | 1001.6 |
| 20260506234451 | 73 | 23 | 0.0 | 0.0 | 0.00 | 0.00 | 0.00 | 95 | 1001.4 |
| 20260506233940 | 72 | 23 | 0.0 | 1.7 | 0.00 | 0.00 | 0.00 | 95 | 1001.4 |
| 20260506233430 | 72 | 23 | 0.0 | 1.7 | 0.00 | 0.00 | 0.00 | 94 | 1000.9 |
| 20260506232920 | 73 | 23 | 0.9 | 3.5 | 0.00 | 0.00 | 0.00 | 94 | 1000.6 |
| 20260506232410 | 73 | 23 | 1.7 | 3.5 | 0.00 | 0.00 | 0.00 | 94 | 1000.4 |
| 20260506231900 | 73 | 23 | 0.9 | 3.5 | 0.00 | 0.00 | 0.00 | 94 | 1000.4 |
| 20260506231349 | 73 | 23 | 0.0 | 3.5 | 0.00 | 0.00 | 0.00 | 93 | 1000.1 |
| 20260506230843 | 73 | 23 | 1.7 | 5.2 | 0.00 | 0.00 | 0.00 | 93 | 1000.3 |
| 20260506230342 | 74 | 23 | 1.7 | 5.2 | 0.00 | 0.00 | 0.00 | 92 | 1000.2 |
| 20260506225819 | 74 | 23 | 1.7 | 5.2 | 0.00 | 0.00 | 0.00 | 92 | 1000.3 |
| 20260506225312 | 74 | 0 | 0.9 | 5.2 | 0.00 | 0.00 | 0.00 | 92 | 1000.1 |
| 20260506224759 | 74 | 23 | 1.7 | 5.2 | 0.00 | 0.00 | 0.00 | 91 | 1000.2 |
| 20260506224248 | 75 | 23 | 1.7 | 7.8 | 0.00 | 0.00 | 0.00 | 91 | 1000.1 |
| 20260506223739 | 75 | 45 | 1.7 | 7.8 | 0.00 | 0.00 | 0.00 | 91 | 1000.1 |
| 20260506223229 | 75 | 23 | 0.9 | 7.0 | 0.00 | 0.00 | 0.00 | 90 | 999.8 |
| 20260506222719 | 75 | 0 | 1.7 | 7.8 | 0.00 | 0.00 | 0.00 | 90 | 999.7 |
| 20260506222208 | 76 | 0 | 4.3 | 7.8 | 0.00 | 0.00 | 0.00 | 90 | 999.9 |
| 20260506221701 | 76 | 338 | 3.5 | 7.0 | 0.00 | 0.00 | 0.00 | 89 | 1000.2 |
| 20260506221148 | 76 | 23 | 3.5 | 7.0 | 0.00 | 0.00 | 0.00 | 89 | 1000.0 |
| 20260506220638 | 76 | 0 | 3.5 | 7.0 | 0.00 | 0.00 | 0.00 | 89 | 999.8 |
| 20260506220129 | 76 | 45 | 1.7 | 7.8 | 0.00 | 0.00 | 0.00 | 88 | 999.9 |
| 20260506215107 | 76 | 45 | 1.7 | 7.0 | 0.00 | 0.00 | 0.00 | 88 | 1000.1 |
| 20260506214558 | 77 | 23 | 0.9 | 7.0 | 0.00 | 0.00 | 0.00 | 87 | 1000.2 |
| 20260506214048 | 77 | 45 | 0.9 | 6.1 | 0.00 | 0.00 | 0.00 | 86 | 1000.0 |
| 20260506213539 | 77 | 45 | 0.0 | 7.8 | 0.00 | 0.00 | 0.00 | 86 | 999.9 |
| 20260506213028 | 78 | 45 | 1.7 | 7.8 | 0.00 | 0.00 | 0.00 | 85 | 1000.0 |
| 20260506212008 | 78 | 23 | 3.5 | 9.6 | 0.00 | 0.00 | 0.00 | 83 | 999.7 |
| 20260506211457 | 79 | 0 | 3.5 | 9.6 | 0.00 | 0.00 | 0.00 | 82 | 999.7 |
| 20260506210437 | 81 | 45 | 0.0 | 7.8 | 0.00 | 0.00 | 0.00 | 75 | 999.8 |
| 20260506205926 | 82 | 68 | 0.9 | 7.8 | 0.00 | 0.00 | 0.00 | 73 | 999.9 |
| 20260506205417 | 82 | 23 | 0.0 | 7.8 | 0.00 | 0.00 | 0.00 | 72 | 999.9 |
| 20260506204907 | 83 | 90 | 2.6 | 7.8 | 0.00 | 0.00 | 0.00 | 71 | 1000.1 |
| 20260506204356 | 83 | 68 | 0.9 | 7.8 | 0.00 | 0.00 | 0.00 | 70 | 1000.1 |
| 20260506203846 | 83 | 45 | 1.7 | 9.6 | 0.00 | 0.00 | 0.00 | 69 | 1000.3 |
| 20260506202826 | 83 | 0 | 1.7 | 12.2 | 0.00 | 0.00 | 0.00 | 69 | 1000.2 |
| 20260506202316 | 51 | 23 | 0.0 | 12.2 | 0.00 | 0.00 | 0.00 | 77 | 1000.0 |
| 20260506201806 | 85 | 0 | 0.9 | 11.3 | 0.00 | 0.00 | 0.00 | 67 | 1000.3 |
| 20260506201256 | 84 | 23 | 3.5 | 12.2 | 0.00 | 0.00 | 0.00 | 66 | 1000.5 |
| 20260506200745 | 85 | 45 | 0.9 | 13.0 | 0.00 | 0.00 | 0.00 | 65 | 1000.4 |
| 20260506200236 | 85 | 0 | 1.7 | 13.0 | 0.00 | 0.00 | 0.00 | 65 | 1000.1 |
| 20260506195725 | 87 | 113 | 0.0 | 7.8 | 0.00 | 0.00 | 0.00 | 62 | 1000.4 |
| 20260506195215 | 86 | 90 | 0.0 | 12.2 | 0.00 | 0.00 | 0.00 | 62 | 1000.8 |
| 20260506194705 | 86 | 0 | 0.9 | 12.2 | 0.00 | 0.00 | 0.00 | 61 | 1000.9 |
| 20260506194155 | 86 | 23 | 2.6 | 15.6 | 0.00 | 0.00 | 0.00 | 63 | 1000.7 |
| 20260506193645 | 86 | 45 | 1.7 | 15.6 | 0.00 | 0.00 | 0.00 | 64 | 1000.6 |
| 20260506193135 | 85 | 338 | 3.5 | 9.6 | 0.00 | 0.00 | 0.00 | 64 | 1000.7 |
| 20260506192624 | 86 | 68 | 1.7 | 12.2 | 0.00 | 0.00 | 0.00 | 65 | 1000.7 |
| 20260506192114 | 85 | 135 | 0.9 | 12.2 | 0.00 | 0.00 | 0.00 | 65 | 1001.0 |
| 20260506191604 | 86 | 23 | 1.7 | 12.2 | 0.00 | 0.00 | 0.00 | 64 | 1001.0 |
| 20260506191054 | 86 | 338 | 0.9 | 12.2 | 0.00 | 0.00 | 0.00 | 63 | 1001.0 |
| 20260506190544 | 86 | 315 | 4.3 | 12.2 | 0.00 | 0.00 | 0.00 | 62 | 1001.3 |